User: anonymous   Login
Location: Gro�sch�nbrunn
(49.5760°N, 11.8868°E)
Time: 03:22:10
(UTC+00:00)
Language:

Cosmos 1437 - Orbit

View from above orbital plane
View from above orbital plane
View from above satellite
View from above satellite

Ground track
Ground track

The orbit data is extracted from the following two-line orbital elements,

1 13770U 83003A   20338.14815383  .00020350  00000-0  18079-3 0  9999
2 13770  81.1569  17.3212 0003263  70.8945 289.2664 15.68371473 83332
Epoch (UTC): 03 December 2020 03:33:20
Eccentricity: 0.0003263
inclination: 81.1569°
perigee height: 361 km
apogee height: 366 km
right ascension of ascending node: 17.3212°
argument of perigee: 70.8945°
revolutions per day: 15.68371473
mean anomaly at epoch: 289.2664°
orbit number at epoch: 8333

The dashed part of the orbit path shows where the satellite is in the earth's shadow,  

DLR